GW6277 Weather Reports


time (UTC)temp
C
wind
direction
speed
KPH
gust
KPH
rain 1hr
cm
rain 24hr
cm
rain mn
cm
humidity
%
barometer
mb
20260507162006 16 352 4.8 6.4 0.00 0.23 0.23 40 1006.0
20260507161502 16 81 4.8 9.7 0.00 0.23 0.23 36 1006.1
20260507160959 15 56 1.6 1.6 0.00 0.23 0.23 36 1005.9
20260507160455 15 192 4.8 6.4 0.00 0.23 0.23 37 1006.0
20260507155951 15 56 12.9 16.1 0.00 0.23 0.23 37 1006.1
20260507155447 15 14 1.6 3.2 0.00 0.23 0.23 37 1006.1
20260507154944 15 44 1.6 3.2 0.00 0.23 0.23 38 1006.1
20260507154440 15 330 9.7 12.9 0.00 0.23 0.23 37 1006.1
20260507153938 15 356 8.0 11.3 0.00 0.23 0.23 39 1006.1
20260507153435 15 338 3.2 3.2 0.00 0.23 0.23 39 1006.2
20260507152931 15 283 1.6 3.2 0.00 0.23 0.23 43 1006.1
20260507152427 15 256 6.4 6.4 0.00 0.23 0.23 41 1006.1
20260507151923 15 1 4.8 6.4 0.00 0.23 0.23 40 1006.2
20260507151420 15 223 3.2 3.2 0.00 0.23 0.23 45 1006.2
20260507150917 14 24 3.2 4.8 0.00 0.23 0.23 44 1006.2
20260507150414 14 11 6.4 9.7 0.00 0.23 0.23 47 1006.5
20260507145910 14 22 6.4 6.4 0.00 0.23 0.23 47 1006.5
20260507145406 14 0 4.8 9.7 0.00 0.23 0.23 50 1006.6
20260507144903 13 31 3.2 4.8 0.00 0.23 0.23 51 1006.2
20260507144400 13 233 3.2 3.2 0.00 0.23 0.23 51 1006.5
20260507143857 13 8 3.2 4.8 0.00 0.23 0.23 53 1006.6
20260507143354 13 237 6.4 6.4 0.00 0.23 0.23 55 1006.5
20260507142851 13 5 3.2 3.2 0.00 0.23 0.23 57 1006.6
20260507142347 13 345 3.2 4.8 0.00 0.23 0.23 60 1006.8
20260507141843 12 356 4.8 4.8 0.00 0.23 0.23 61 1006.7
20260507141340 13 208 1.6 3.2 0.00 0.23 0.23 61 1006.7
20260507140837 12 155 1.6 1.6 0.00 0.23 0.23 63 1006.8
20260507140333 12 65 3.2 3.2 0.00 0.23 0.23 63 1006.7
20260507135832 13 58 1.6 3.2 0.00 0.23 0.23 61 1006.7
20260507135328 13 172 0.0 1.6 0.00 0.23 0.23 67 1006.5
20260507134826 12 47 3.2 4.8 0.00 0.23 0.23 64 1006.5
20260507134321 12 2 6.4 9.7 0.00 0.23 0.23 63 1006.8
20260507133817 12 9 9.7 11.3 0.00 0.23 0.23 63 1006.5
20260507133313 12 346 6.4 9.7 0.00 0.23 0.23 63 1006.6
20260507132812 12 338 8.0 11.3 0.00 0.23 0.23 65 1006.5
20260507132308 12 43 1.6 3.2 0.00 0.23 0.23 64 1006.7
20260507131805 12 21 4.8 4.8 0.00 0.23 0.23 65 1006.9
20260507131302 12 26 9.7 11.3 0.00 0.23 0.23 65 1006.6
20260507130758 12 31 3.2 3.2 0.00 0.23 0.23 66 1006.6
20260507130256 12 106 1.6 1.6 0.00 0.23 0.23 68 1006.8
20260507125755 11 247 3.2 3.2 0.00 0.23 0.23 67 1006.8
20260507125252 11 357 8.0 11.3 0.00 0.23 0.23 68 1006.6
20260507124749 11 71 6.4 11.3 0.00 0.23 0.23 69 1006.8
20260507124245 11 71 1.6 3.2 0.00 0.23 0.23 71 1006.9
20260507123744 11 279 4.8 4.8 0.00 0.23 0.23 74 1006.9
20260507123241 11 348 6.4 6.4 0.00 0.23 0.23 77 1006.9
20260507122736 11 85 1.6 1.6 0.00 0.23 0.23 77 1006.8
20260507122232 10 152 0.0 0.0 0.00 0.23 0.23 80 1007.0
20260507121728 10 50 1.6 1.6 0.00 0.23 0.23 83 1007.0
20260507121224 10 92 0.0 1.6 0.00 0.23 0.23 85 1006.8
20260507120720 10 75 0.0 1.6 0.00 0.23 0.23 85 1007.0
20260507120218 10 108 0.0 0.0 0.00 0.23 0.23 87 1006.9
20260507115714 9 107 0.0 0.0 0.00 0.23 0.23 87 1006.8
20260507115209 9 103 0.0 1.6 0.00 0.23 0.23 88 1006.6
20260507114705 9 113 0.0 0.0 0.00 0.23 0.23 89 1006.6
20260507114203 9 65 1.6 1.6 0.00 0.23 0.23 90 1006.7
20260507113700 9 357 3.2 4.8 0.00 0.23 0.23 91 1006.7
20260507113157 9 98 0.0 0.0 0.00 0.23 0.23 92 1006.7
20260507112655 8 114 0.0 0.0 0.00 0.23 0.23 93 1006.8
20260507112151 8 92 0.0 1.6 0.00 0.23 0.23 94 1006.6
20260507111649 8 99 0.0 0.0 0.00 0.23 0.23 94 1006.7
20260507111145 8 100 0.0 0.0 0.00 0.23 0.23 94 1006.6
20260507110641 8 100 0.0 0.0 0.00 0.23 0.23 95 1006.6
20260507110138 8 99 0.0 1.6 0.00 0.23 0.23 95 1006.5
20260507105635 8 112 0.0 0.0 0.00 0.23 0.23 95 1006.3
20260507105131 8 123 0.0 0.0 0.00 0.23 0.23 95 1006.4
20260507104628 8 123 0.0 0.0 0.00 0.23 0.23 95 1006.5
20260507104125 8 138 0.0 0.0 0.00 0.23 0.23 95 1006.6
20260507103621 8 138 0.0 0.0 0.00 0.23 0.23 95 1006.4
20260507103118 8 138 0.0 1.6 0.00 0.23 0.23 94 1006.7
20260507102614 8 137 1.6 1.6 0.00 0.23 0.23 94 1006.7
20260507102110 8 134 0.0 0.0 0.00 0.23 0.23 94 1006.4
20260507101606 8 134 0.0 0.0 0.00 0.23 0.23 94 1006.2
20260507101102 8 134 0.0 0.0 0.00 0.23 0.23 94 1006.2
20260507100600 8 134 0.0 0.0 0.00 0.23 0.23 94 1006.0
20260507100058 8 134 0.0 0.0 0.00 0.23 0.23 94 1006.3
20260507095555 8 134 0.0 0.0 0.00 0.23 0.23 93 1006.0
20260507095052 8 134 0.0 0.0 0.00 0.23 0.23 93 1005.9
20260507094548 8 134 0.0 0.0 0.13 0.23 0.23 93 1006.2
20260507094045 8 134 0.0 0.0 0.13 0.23 0.23 93 1005.7
20260507093543 8 123 0.0 0.0 0.00 0.20 0.20 92 1005.9
20260507093042 8 122 0.0 0.0 0.00 0.20 0.20 92 1006.0
20260507092537 8 106 0.0 0.0 0.18 0.20 0.20 91 1005.7
20260507092034 8 106 0.0 0.0 0.18 0.20 0.20 91 1005.9
20260507091531 8 106 0.0 0.0 0.13 0.18 0.18 90 1006.1
20260507091027 9 105 0.0 0.0 0.30 0.18 0.18 90 1005.9
20260507090523 9 99 0.0 0.0 0.30 0.15 0.15 89 1006.2
20260507090020 9 107 0.0 0.0 0.30 0.13 0.13 89 1006.1
20260507085517 9 86 0.0 1.6 0.18 0.10 0.10 89 1006.4
20260507085014 9 104 0.0 0.0 0.00 0.08 0.08 89 1006.5
20260507084510 9 65 1.6 1.6 0.00 0.08 0.08 89 1006.4
20260507084008 9 122 0.0 0.0 0.13 0.08 0.08 89 1006.3
20260507083504 9 122 0.0 1.6 0.13 0.08 0.08 89 1006.2
20260507083001 9 122 0.0 0.0 0.00 0.05 0.05 88 1006.1
20260507082457 9 121 0.0 0.0 0.00 0.05 0.05 86 1006.0
20260507081953 9 97 0.0 0.0 0.00 0.05 0.05 85 1006.2
20260507081449 9 104 0.0 1.6 0.00 0.05 0.05 85 1006.2
20260507080946 9 102 0.0 0.0 0.00 0.05 0.05 85 1006.0
20260507080442 10 138 0.0 0.0 0.00 0.05 0.05 84 1005.9
20260507075937 10 107 0.0 0.0 0.00 0.05 0.05 84 1005.9
20260507075434 10 126 0.0 0.0 0.00 0.05 0.05 83 1006.1
20260507074931 10 124 0.0 0.0 0.00 0.05 0.05 83 1006.2
20260507074428 10 110 0.0 0.0 0.00 0.05 0.05 83 1006.1
20260507073926 10 359 3.2 3.2 0.18 0.05 0.05 81 1006.1
20260507073422 10 27 3.2 4.8 0.30 0.05 0.05 81 1006.0
20260507072919 11 332 4.8 4.8 0.30 0.05 0.05 78 1005.8
20260507072416 11 110 0.0 1.6 0.13 0.03 0.03 76 1005.9
20260507071914 11 349 4.8 6.4 0.00 0.00 0.00 74 1006.2
20260507071411 11 49 0.0 1.6 0.00 0.00 0.00 74 1005.6
20260507070907 11 50 0.0 0.0 0.00 0.00 0.00 74 1005.5
20260507070404 11 69 1.6 1.6 0.00 0.00 0.00 75 1005.2
20260507065901 11 355 6.4 9.7 0.00 0.00 0.00 75 1005.4
20260507065357 11 200 3.2 3.2 0.00 0.00 0.00 77 1005.3
20260507064855 11 6 1.6 3.2 0.00 0.00 0.00 77 1005.2
20260507064353 11 32 3.2 3.2 0.00 0.00 0.00 78 1005.3
20260507063851 11 134 1.6 1.6 0.00 0.00 0.00 79 1005.2
20260507063347 12 42 3.2 4.8 0.00 0.00 0.00 80 1005.1
20260507062844 12 82 0.0 0.0 0.00 0.00 0.00 81 1005.3
20260507062341 12 68 1.6 3.2 0.00 0.00 0.00 80 1005.3
20260507061839 12 86 1.6 1.6 0.00 0.00 0.00 80 1005.5
20260507061337 12 95 0.0 0.0 0.00 0.00 0.00 79 1005.5
20260507060835 12 308 3.2 3.2 0.00 0.00 0.00 79 1005.4
20260507060331 12 51 1.6 1.6 0.00 0.00 0.00 80 1005.1
20260507055828 12 21 1.6 1.6 0.00 0.00 0.00 80 1005.2
20260507055323 12 115 0.0 1.6 0.00 0.00 0.00 81 1005.2
20260507054820 12 36 3.2 4.8 0.00 0.00 0.00 82 1005.5
20260507054316 12 131 1.6 1.6 0.00 0.00 0.00 82 1005.4
20260507053814 12 119 0.0 0.0 0.00 0.00 0.00 82 1005.6
20260507053311 12 113 1.6 1.6 0.00 0.00 0.00 82 1005.7
20260507052810 12 97 0.0 0.0 0.00 0.00 0.00 82 1005.6
20260507052307 13 328 6.4 6.4 0.00 0.00 0.00 83 1005.9
20260507051804 13 91 0.0 0.0 0.00 0.00 0.00 85 1005.8
20260507051301 13 359 3.2 3.2 0.00 0.00 0.00 84 1005.4
20260507050758 13 60 1.6 1.6 0.00 0.00 0.00 84 1005.5
20260507050254 13 43 1.6 3.2 0.00 0.00 0.00 85 1005.4
20260507045751 13 342 3.2 4.8 0.00 0.00 0.00 87 1005.3
20260507045247 13 59 1.6 1.6 0.00 0.00 0.00 87 1005.3
20260507044745 13 87 1.6 1.6 0.00 0.00 0.00 87 1005.3
20260507044241 13 56 1.6 1.6 0.00 0.00 0.00 87 1005.5
20260507043737 13 51 1.6 1.6 0.00 0.00 0.00 87 1005.4
20260507043234 14 2 3.2 4.8 0.00 0.00 0.00 87 1005.5
20260507042731 14 95 1.6 1.6 0.00 0.00 0.00 87 1005.5
20260507042226 14 143 0.0 0.0 0.00 0.00 0.00 87 1005.4
20260507041724 14 57 1.6 3.2 0.00 0.00 0.00 86 1005.3
20260507041220 14 63 3.2 4.8 0.00 0.00 0.00 88 1005.2
20260507040717 15 168 1.6 1.6 0.00 0.00 0.00 88 1005.4
20260507040213 15 62 1.6 3.2 0.00 0.00 0.00 89 1005.6
20260507035709 15 38 1.6 1.6 0.00 0.23 0.23 89 1005.4
20260507035205 15 24 6.4 6.4 0.00 0.23 0.23 90 1005.5
20260507034702 15 84 1.6 1.6 0.00 0.23 0.23 92 1005.7
20260507034200 15 89 0.0 0.0 0.00 0.23 0.23 92 1005.5
20260507033658 15 75 1.6 1.6 0.00 0.23 0.23 92 1005.2
20260507033155 15 52 3.2 3.2 0.00 0.23 0.23 92 1005.3
20260507032652 15 80 1.6 1.6 0.00 0.23 0.23 92 1005.2
20260507032148 15 90 1.6 3.2 0.00 0.23 0.23 93 1004.9
20260507031645 15 125 0.0 0.0 0.00 0.23 0.23 92 1004.8
20260507031141 15 104 0.0 0.0 0.00 0.23 0.23 92 1004.8
20260507030638 15 38 3.2 3.2 0.00 0.23 0.23 93 1004.8
20260507030136 15 67 1.6 3.2 0.00 0.23 0.23 93 1004.8
20260507025633 15 104 0.0 0.0 0.00 0.23 0.23 92 1004.8
20260507025130 15 91 0.0 0.0 0.00 0.23 0.23 93 1004.8
20260507024628 15 86 1.6 1.6 0.00 0.23 0.23 93 1004.7
20260507024125 15 142 0.0 0.0 0.00 0.23 0.23 93 1004.5
20260507023620 15 145 0.0 0.0 0.00 0.23 0.23 93 1004.5
20260507023118 15 144 0.0 0.0 0.00 0.23 0.23 93 1004.6
20260507022615 15 104 0.0 0.0 0.00 0.23 0.23 93 1004.8
20260507022110 15 88 3.2 3.2 0.00 0.23 0.23 93 1004.8
20260507021606 15 138 0.0 0.0 0.00 0.23 0.23 93 1004.9
20260507021102 15 138 3.2 3.2 0.00 0.23 0.23 93 1004.7
20260507020601 15 146 0.0 0.0 0.00 0.23 0.23 93 1004.8
20260507020057 15 128 0.0 1.6 0.00 0.23 0.23 93 1004.6
20260507015556 15 129 0.0 0.0 0.00 0.23 0.23 93 1004.8
20260507015053 15 147 0.0 0.0 0.00 0.23 0.23 93 1004.7
20260507014549 15 171 1.6 1.6 0.00 0.23 0.23 93 1004.7
20260507014045 15 179 3.2 3.2 0.00 0.23 0.23 93 1004.9
20260507013542 15 133 0.0 0.0 0.00 0.23 0.23 93 1004.7
20260507013039 15 168 1.6 3.2 0.00 0.23 0.23 93 1004.6
20260507012536 15 137 0.0 0.0 0.00 0.23 0.23 93 1004.5
20260507012032 15 151 0.0 1.6 0.00 0.23 0.23 93 1004.7
20260507011530 15 156 1.6 1.6 0.00 0.23 0.23 93 1004.8
20260507011026 15 139 0.0 1.6 0.00 0.23 0.23 93 1004.9
20260507010520 15 172 1.6 3.2 0.00 0.23 0.23 93 1004.8
20260507010017 15 129 1.6 1.6 0.00 0.23 0.23 93 1005.0
20260507005514 15 157 1.6 1.6 0.00 0.23 0.23 93 1004.9
20260507005011 15 236 9.7 11.3 0.00 0.23 0.23 93 1004.8
20260507004508 15 70 3.2 3.2 0.00 0.23 0.23 93 1004.9
20260507004006 15 232 1.6 4.8 0.00 0.23 0.23 93 1004.9
20260507003500 15 147 0.0 0.0 0.00 0.23 0.23 93 1004.9
20260507002955 15 121 0.0 0.0 0.00 0.23 0.23 93 1004.7
20260507002453 15 156 1.6 1.6 0.00 0.23 0.23 93 1004.8
20260507001949 15 141 0.0 0.0 0.00 0.23 0.23 93 1004.9
20260507001446 15 172 1.6 3.2 0.00 0.23 0.23 93 1004.8
20260507000943 15 156 0.0 1.6 0.00 0.23 0.23 93 1004.8
20260507000439 15 207 3.2 4.8 0.00 0.23 0.23 93 1004.7
20260506235934 15 158 1.6 1.6 0.00 0.23 0.23 93 1004.6
20260506235432 15 151 0.0 0.0 0.00 0.23 0.23 93 1004.5
20260506234927 15 130 1.6 3.2 0.00 0.23 0.23 93 1004.4
20260506234425 15 137 0.0 0.0 0.00 0.23 0.23 93 1004.5
20260506233923 15 147 0.0 0.0 0.00 0.23 0.23 93 1004.5
20260506233419 15 188 4.8 9.7 0.00 0.23 0.23 93 1004.4
20260506232916 15 144 0.0 1.6 0.00 0.23 0.23 93 1004.7
20260506232412 15 118 0.0 0.0 0.00 0.23 0.23 93 1004.4
20260506231908 15 141 0.0 0.0 0.00 0.23 0.23 93 1004.2
20260506231406 15 147 1.6 1.6 0.00 0.23 0.23 93 1004.4
20260506230903 15 209 6.4 9.7 0.18 0.23 0.23 92 1004.4
20260506230359 15 205 3.2 11.3 0.18 0.23 0.23 92 1004.4
20260506225855 15 150 1.6 1.6 0.18 0.20 0.20 92 1004.5
20260506225353 15 145 1.6 3.2 0.18 0.20 0.20 92 1004.6
20260506224844 15 154 1.6 3.2 0.00 0.18 0.18 92 1004.5
20260506224342 15 142 1.6 3.2 0.00 0.18 0.18 91 1004.5
20260506223838 15 151 1.6 3.2 0.00 0.18 0.18 91 1004.4
20260506223333 15 154 0.0 0.0 0.00 0.18 0.18 92 1004.7
20260506222830 15 151 4.8 9.7 0.00 0.18 0.18 92 1004.5
20260506222325 15 122 0.0 0.0 0.00 0.18 0.18 92 1004.6
20260506221819 15 141 0.0 1.6 0.00 0.18 0.18 92 1004.6
20260506221316 15 175 3.2 3.2 0.00 0.18 0.18 91 1004.6
20260506220813 15 144 1.6 3.2 0.13 0.18 0.18 91 1004.8
20260506220313 15 144 1.6 3.2 0.13 0.18 0.18 91 1004.9
20260506215810 15 147 1.6 4.8 0.13 0.18 0.18 90 1004.8
20260506215306 15 161 1.6 1.6 0.00 0.15 0.15 90 1005.0
20260506214802 15 230 3.2 4.8 0.00 0.15 0.15 90 1004.9
20260506214259 15 147 0.0 1.6 0.00 0.15 0.15 90 1005.0
20260506213757 15 150 1.6 1.6 0.00 0.15 0.15 90 1005.0
20260506213254 15 131 0.0 0.0 0.00 0.15 0.15 90 1005.0
20260506212751 15 206 3.2 4.8 0.00 0.15 0.15 90 1005.1
20260506212247 15 137 0.0 1.6 0.00 0.15 0.15 90 1005.3
20260506211742 15 188 0.0 1.6 0.00 0.15 0.15 90 1005.1
20260506211239 15 201 1.6 3.2 0.00 0.15 0.15 89 1005.2
20260506210736 15 166 1.6 3.2 0.00 0.15 0.15 89 1005.2
20260506210233 15 141 1.6 1.6 0.00 0.15 0.15 89 1005.2
20260506205731 15 131 0.0 0.0 0.00 0.15 0.15 89 1005.3
20260506205226 15 133 1.6 1.6 0.00 0.15 0.15 89 1005.3
20260506204723 15 172 3.2 4.8 0.18 0.15 0.15 89 1005.3
20260506204220 15 152 1.6 1.6 0.18 0.15 0.15 89 1005.7
20260506203718 15 123 0.0 1.6 0.00 0.13 0.13 89 1005.7
20260506203215 15 133 0.0 0.0 0.00 0.13 0.13 88 1005.4
20260506202713 15 144 0.0 1.6 0.00 0.13 0.13 88 1005.5
20260506202209 15 210 6.4 9.7 0.00 0.13 0.13 88 1005.6
20260506201706 15 159 1.6 3.2 0.00 0.13 0.13 88 1005.6
20260506201202 15 138 1.6 1.6 0.00 0.13 0.13 88 1005.7
20260506200659 15 151 4.8 6.4 0.00 0.13 0.13 89 1005.8
20260506200156 15 170 1.6 1.6 0.00 0.13 0.13 89 1005.7
20260506195652 15 138 0.0 1.6 0.00 0.13 0.13 89 1005.5
20260506195149 15 214 1.6 4.8 0.00 0.13 0.13 89 1005.7
20260506194646 15 223 6.4 14.5 0.00 0.13 0.13 88 1005.6
20260506194142 15 202 4.8 4.8 0.00 0.13 0.13 88 1005.6
20260506193640 15 228 8.0 11.3 0.13 0.13 0.13 88 1005.9
20260506193137 15 137 4.8 6.4 0.30 0.13 0.13 87 1005.8
20260506192634 16 112 0.0 1.6 0.18 0.10 0.10 86 1005.7
20260506192130 16 152 1.6 1.6 0.13 0.08 0.08 84 1005.8
20260506191627 16 208 6.4 12.9 0.13 0.08 0.08 83 1005.7
20260506191122 16 229 6.4 6.4 0.18 0.05 0.05 84 1005.9
20260506190621 17 156 1.6 3.2 0.18 0.05 0.05 81 1005.9
20260506190117 17 147 0.0 1.6 0.00 0.03 0.03 80 1005.6
20260506185614 17 144 1.6 1.6 0.13 0.03 0.03 78 1005.7
20260506185110 17 209 6.4 12.9 0.13 0.03 0.03 76 1005.8
20260506184608 18 209 3.2 4.8 0.00 0.00 0.00 74 1005.9
20260506184106 18 156 1.6 1.6 0.00 0.00 0.00 72 1005.9
20260506183601 18 194 6.4 6.4 0.00 0.00 0.00 70 1006.0
20260506183058 18 146 1.6 1.6 0.00 0.00 0.00 69 1006.0
20260506182555 19 156 3.2 4.8 0.00 0.00 0.00 67 1006.1
20260506182052 20 143 1.6 1.6 0.00 0.00 0.00 66 1006.2
20260506181550 20 127 0.0 1.6 0.00 0.00 0.00 64 1006.2
20260506181047 20 163 3.2 4.8 0.00 0.00 0.00 62 1006.2
20260506180543 20 174 8.0 16.1 0.00 0.00 0.00 61 1006.0
20260506180040 20 194 3.2 4.8 0.00 0.00 0.00 60 1006.0
20260506175536 21 196 3.2 9.7 0.00 0.00 0.00 58 1006.1
20260506175033 21 137 1.6 3.2 0.00 0.00 0.00 58 1006.0
20260506174532 21 237 6.4 9.7 0.00 0.00 0.00 56 1006.1
20260506174027 21 185 3.2 3.2 0.00 0.00 0.00 55 1005.9
20260506173525 21 150 3.2 3.2 0.00 0.00 0.00 55 1006.1
20260506173022 21 188 6.4 6.4 0.00 0.00 0.00 54 1006.2
20260506172519 22 223 4.8 6.4 0.00 0.00 0.00 53 1006.2
20260506172015 22 209 11.3 22.5 0.00 0.00 0.00 53 1006.3
20260506171514 22 131 8.0 12.9 0.00 0.00 0.00 53 1006.2
20260506171011 22 135 0.0 1.6 0.00 0.00 0.00 54 1006.2
20260506170508 22 135 1.6 3.2 0.00 0.00 0.00 53 1006.2
20260506170005 22 120 3.2 3.2 0.00 0.00 0.00 54 1006.2
20260506165504 21 160 4.8 6.4 0.00 0.00 0.00 54 1006.3
20260506164959 22 248 8.0 11.3 0.00 0.00 0.00 54 1006.3
20260506164456 22 202 8.0 14.5 0.00 0.00 0.00 53 1006.3
20260506163954 22 144 1.6 1.6 0.00 0.00 0.00 55 1006.4
20260506163449 22 154 1.6 3.2 0.00 0.00 0.00 54 1006.4
20260506162944 22 223 11.3 17.7 0.00 0.00 0.00 53 1006.5
20260506162442 22 131 6.4 14.5 0.00 0.00 0.00 54 1006.8